Regional Weather Roundup
Issued by NWS

Home | Current Version | Previous Version | Graphics & Text | Print | Product List | Glossary On
Versions: 1 2 3 4 5 6 7 8 9 10 11 12 13 14 15 16 17 18 19 20 21 22 23 24 25 26 27 28 29 30 31 32 33 34 35 36 37 38 39 40 41 42 43 44 45 46 47 48 49 50
000
ASUS45 KTFX 310704
RWRMT
MONTANA HOURLY WEATHER ROUNDUP
NATIONAL WEATHER SERVICE GREAT FALLS MT
104 AM MDT THU JUL 31 2014

NOTE: "FAIR" INDICATES FEW OR NO CLOUDS BELOW 12000 FEET WITH NO
SIGNIFICANT WEATHER AND/OR OBSTRUCTIONS TO VISIBILITY.

* THESE STATIONS ARE NOT UNDER NWS QUALITY CONTROL. THEY DO NOT
   REPORT WEATHER SUCH AS PRECIPITATION OR FOG.

MTZ001>007-043-310800-
WEST OF THE DIVIDE
CITY           SKY/WX    TMP DP  RH WIND       PRES   REMARKS
KALISPELL      CLEAR     59  48  67 W6        30.11R
MISSOULA       PTCLDY    72  46  40 CALM      30.15R
BUTTE          PTCLDY    55  45  69 SE9       30.31R
MULLAN PASS    PTCLDY    72  36  27 W3        30.31S
* ESSEX        N/A       66  45  47 S4G9       N/A
* LINCOLN      N/A       57  52  83 SE1G7      N/A
* LOOKOUT PASS N/A       65  44  47 N/A        N/A
* POLSON       N/A       68  43  40 NE2        N/A
* RONAN APT    PTCLDY    72  54  53 N/A        N/A
* SEELEY LAKE  N/A       56  43  62 NE2        N/A
* THOMP F APT  PTCLDY    58  39  49 N5G10      N/A
* YAAK HILL    N/A       69  48  47 NE1        N/A
$$

MTZ008-052>055-310800-
SOUTHWEST MONTANA
CITY           SKY/WX    TMP DP  RH WIND       PRES   REMARKS
BOZEMAN        PTCLDY    59  46  62 S7        30.23R
DILLON         PTCLDY    59  45  60 S6        30.28R
W YELLOWSTONE  MOCLDY    48  41  77 CALM      30.38S
* THREE FORKS  PTCLDY    63  52  68 N/A        N/A
* BOULDER HILL N/A       63  39  41 SW8        N/A
* MONIDA PASS  N/A       53  46  77 SW2        N/A
* RAYNOLDS PAS N/A       53  33  47 SE6        N/A
* WHITEHALL    N/A       69  43  39 NW5G13     N/A
* WISE RIVER   N/A       55  44  67 SW4        N/A
$$

MTZ009>010-012-014-046-048-049-054-310800-
EAST SLOPES AND CENTRAL MONTANA
CITY           SKY/WX    TMP DP  RH WIND       PRES   REMARKS
CUT BANK       CLOUDY    66  41  40 CALM      30.14R
GREAT FALLS    PTCLDY    64  45  50 N7        30.14R
HELENA         PTCLDY    73  45  37 NW6       30.16S
MALMSTROM AFB  PTCLDY    70  45  41 NW9       30.16R
* CONRAD       MOCLDY    70  46  42 W6         N/A
* DEARBORN     N/A       64  50  61 S1         N/A
* EAST GLACIER N/A       68  37  32 W7         N/A
* MONARCH      N/A       61  40  46 E2         N/A
* PENDROY      N/A       62  46  56 NW9        N/A
* ROGERS PASS  N/A       61  43  52 NW2        N/A
* SAINT MARY   N/A       62  44  52 NE3G10     N/A
* SWEET GRASS  N/A       70  41  35 W11        N/A
$$

MTZ011-013-016-021-035-040-045-047-050-051-310800-
NORTH CENTRAL MONTANA
CITY           SKY/WX    TMP DP  RH WIND       PRES   REMARKS
HAVRE          PTCLDY    72  46  40 E9        30.01F
LEWISTOWN      MOCLDY    66  39  37 S7        30.17S
* CHESTER      N/A       76  40  27 NE5        N/A
* DENTON       N/A       69  40  35 S2         N/A
* GEYSER       N/A       63  46  54 SW5G11     N/A
* JUDITH GAP   N/A       62  39  43 N/A        N/A
* LOMA         N/A       76  44  32 SW12       N/A
$$

MTZ017>020-022>027-061-062-310800-
NORTHEAST MONTANA
CITY           SKY/WX    TMP DP  RH WIND       PRES   REMARKS
GLASGOW        PTCLDY    66  48  52 E10       30.04F
GLENDIVE       PTCLDY    64  48  56 S7        30.12S
JORDAN         PTCLDY    72  39  30 CALM      30.08F
SIDNEY         MOCLDY    66  48  52 N9        30.15R
WOLF POINT     PTCLDY    64  48  56 NE8       30.08R
* BEAVER HILL  N/A       64  49  58 SE9        N/A
* CIRCLE       N/A       69  50  51 N/A        N/A
* LINDSAY DVD  N/A       64  49  58 S3         N/A
$$

MTZ028>042-056>058-310800-
SOUTHCENTRAL AND SOUTHEAST MONTANA
CITY           SKY/WX    TMP DP  RH WIND       PRES   REMARKS
BAKER          CLEAR     57  48  72 E3        30.15F
BILLINGS       MOCLDY    75  36  24 S5        30.14S
LIVINGSTON     MOCLDY    63  39  41 W9        30.21S
MILES CITY     CLEAR     70  45  41 S9        30.11S
* LAUREL APT   MOCLDY    64  36  35 N/A        N/A
* ROUNDUP APT  PTCLDY    70  34  27 N/A        N/A
* ALZADA       N/A       60  47  62 E4         N/A
* HYSHAM       N/A       76  39  26 SE6G12     N/A
* LAME DEER    N/A       71  38  30 SE6        N/A
* REED POINT   N/A       59  43  56 N/A        N/A
* ROSCOE HILL  N/A       67  34  29 S6         N/A
$$

REGIONAL REPORTS...DAKOTAS
CITY           SKY/WX    TMP DP  RH WIND       PRES   REMARKS
WILLISTON      LGT RAIN  68  57  68 E7        30.16S
DICKINSON      PTCLDY    57  54  90 S6        30.12F
CROSBY         N/A       63  61  93 S6        30.12F
TIOGA          CLEAR     59  59 100 CALM      30.17R
WATFORD CITY   MOCLDY    63  54  73 E3        30.15S
BISMARCK       CLEAR     63  57  81 NE3       30.11S
GRAND FORKS    CLEAR     59  55  87 W6        30.03F
FARGO          CLEAR     59  54  84 SW5       30.05S
BUFFALO SD     CLEAR     66  52  61 SW3       30.10F
RAPID CITY     PTCLDY    61  50  67 N8        30.17F
$$

REGIONAL REPORTS...WYOMING/IDAHO/WASHINGTON
CITY           SKY/WX    TMP DP  RH WIND       PRES   REMARKS
GILLETTE       PTCLDY    55  46  72 S6        30.23F
SHERIDAN       PTCLDY    55  43  64 S5        30.20F
YELLOWSTONE LA PTCLDY    46  39  77 CALM      30.48S
SALMON         PTCLDY    68  46  45 NE6       30.23S
MULLAN PASS    PTCLDY    72  36  27 W3        30.31S
SAND POINT     CLEAR     61  52  72 CALM      30.03R
SPOKANE        FAIR      79  30  17 SW8       30.02S

$$




USA.gov is the U.S. government's official web portal to all federal, state and local government web resources and services.